Simultaneous Nadir Overpasses (SNOs) Predictions

Prediction of SNOs between GOES-14 and AQUA Satellite Orbit:

Table of predicted SNOs for the next 14.0 days since TLE Epoch: 10/20/2018
Index Date Time (GOES-14) GOES-14 Lat,Lon AQUA Lat,Lon Distance(km) Time Diff (sec)
1 10/20/2018 08:26:59 0.20,-104.11 -0.01,-103.20 104.30 80
2 10/20/2018 20:48:24 -0.18,-104.06 -1.08,-108.40 492.78 80
3 10/22/2018 08:14:47 0.21,-104.11 -0.62,-100.24 440.02 80
4 10/22/2018 20:36:12 -0.18,-104.06 -0.46,-105.44 156.45 80
5 10/24/2018 20:26:40 -0.19,-104.06 0.16,-102.48 179.72 80
6 10/25/2018 08:47:55 0.16,-104.13 0.93,-107.63 399.16 80
7 10/27/2018 08:35:43 0.17,-104.12 0.31,-104.67 63.80 80
8 10/29/2018 08:20:51 0.17,-104.10 -0.32,-101.72 271.13 80
9 10/29/2018 20:42:16 -0.15,-104.01 -0.74,-106.92 329.53 80
10 10/31/2018 20:32:43 -0.15,-104.00 -0.16,-103.95 6.32 80
11 11/02/2018 20:20:31 -0.15,-103.99 0.48,-100.99 341.18 80




NCC Satellite Simultaneous Nadir Overpasses (SNOs) Prediction Service
